User: anonymous   Login
Location: Asheville, NC
(35.6000°N, 82.5500°W)
Time: 04:20:44
(UTC-05:00)
Language:

EO-88 - Orbit

View from above orbital plane
View from above orbital plane
View from above satellite
View from above satellite

Ground track
Ground track

The orbit data is extracted from the following two-line orbital elements,

1 42017U 17008BX  18018.67585353  .00001354  00000-0  58957-4 0  9991
2 42017  97.4687  84.5126 0006655 171.8301 188.3045 15.23953992 51290
Epoch (UTC): 18 January 2018 16:13:13
Eccentricity: 0.0006655
inclination: 97.4687°
perigee height: 489 km
apogee height: 498 km
right ascension of ascending node: 84.5126°
argument of perigee: 171.8301°
revolutions per day: 15.23953992
mean anomaly at epoch: 188.3045°
orbit number at epoch: 5129

The dashed part of the orbit path shows where the satellite is in the earth's shadow,  

DLR